| time (UTC) | temp F | wind direction | speed knots | gust knots | rain 1hr in | rain 24hr in | rain mn in | humidity % | barometer mb |
| 20260510123505 | 73 | 101 | 0.0 | 0.0 | 0.00 | 0.00 | 0.00 | 95 | 1012.0 |
| 20260510123005 | 73 | 108 | 0.0 | 0.0 | 0.00 | 0.00 | 0.00 | 95 | 1012.0 |
| 20260510122505 | 73 | 60 | 0.0 | 0.0 | 0.00 | 0.00 | 0.00 | 95 | 1012.0 |
| 20260510122005 | 73 | 52 | 0.0 | 0.0 | 0.00 | 0.00 | 0.00 | 95 | 1012.0 |
| 20260510121711 | 73 | 121 | 0.0 | 0.0 | 0.00 | 0.00 | 0.00 | 95 | 1012.0 |
| 20260510121005 | 73 | 119 | 0.0 | 0.0 | 0.00 | 0.00 | 0.00 | 95 | 1012.0 |
| 20260510120505 | 73 | 89 | 0.0 | 0.0 | 0.00 | 0.00 | 0.00 | 95 | 1012.0 |
| 20260510120005 | 73 | 118 | 0.0 | 0.0 | 0.00 | 0.00 | 0.00 | 95 | 1011.6 |
| 20260510115505 | 73 | 119 | 0.0 | 0.0 | 0.00 | 0.00 | 0.00 | 95 | 1011.3 |
| 20260510115005 | 73 | 119 | 0.0 | 0.0 | 0.00 | 0.00 | 0.00 | 95 | 1011.6 |
| 20260510114505 | 73 | 74 | 0.0 | 0.0 | 0.00 | 0.00 | 0.00 | 95 | 1011.6 |
| 20260510114004 | 73 | 112 | 0.0 | 0.0 | 0.00 | 0.00 | 0.00 | 95 | 1011.6 |
| 20260510113505 | 73 | 106 | 0.0 | 0.0 | 0.00 | 0.00 | 0.00 | 95 | 1011.6 |
| 20260510113005 | 73 | 119 | 0.0 | 0.0 | 0.00 | 0.00 | 0.00 | 95 | 1011.6 |
| 20260510112713 | 73 | 124 | 0.0 | 0.0 | 0.00 | 0.00 | 0.00 | 95 | 1011.6 |
| 20260510112005 | 73 | 95 | 0.0 | 0.0 | 0.00 | 0.00 | 0.00 | 95 | 1011.6 |
| 20260510111713 | 73 | 107 | 0.0 | 0.0 | 0.00 | 0.00 | 0.00 | 95 | 1011.3 |
| 20260510111005 | 73 | 118 | 0.0 | 0.0 | 0.00 | 0.00 | 0.00 | 95 | 1011.3 |
| 20260510110505 | 73 | 118 | 0.0 | 0.0 | 0.00 | 0.00 | 0.00 | 95 | 1011.6 |
| 20260510110005 | 73 | 115 | 0.0 | 0.0 | 0.00 | 0.00 | 0.00 | 95 | 1011.6 |
| 20260510105505 | 73 | 110 | 0.0 | 0.0 | 0.00 | 0.00 | 0.00 | 95 | 1011.3 |
| 20260510105004 | 73 | 110 | 0.0 | 0.0 | 0.00 | 0.00 | 0.00 | 95 | 1011.3 |
| 20260510104505 | 73 | 111 | 0.0 | 0.0 | 0.00 | 0.00 | 0.00 | 95 | 1011.6 |
| 20260510104005 | 73 | 113 | 0.0 | 0.0 | 0.00 | 0.00 | 0.00 | 95 | 1011.3 |
| 20260510103505 | 73 | 53 | 0.0 | 0.0 | 0.00 | 0.00 | 0.00 | 95 | 1011.3 |
| 20260510103005 | 73 | 121 | 0.0 | 0.0 | 0.00 | 0.00 | 0.00 | 95 | 1011.3 |
| 20260510102505 | 73 | 10 | 0.0 | 0.0 | 0.00 | 0.00 | 0.00 | 95 | 1011.3 |
| 20260510102005 | 73 | 83 | 0.0 | 0.0 | 0.00 | 0.00 | 0.00 | 95 | 1011.3 |
| 20260510101504 | 73 | 88 | 0.0 | 0.0 | 0.00 | 0.00 | 0.00 | 95 | 1011.6 |
| 20260510101005 | 73 | 319 | 0.0 | 0.0 | 0.00 | 0.00 | 0.00 | 95 | 1011.6 |
| 20260510100505 | 73 | 114 | 0.0 | 0.0 | 0.00 | 0.00 | 0.00 | 95 | 1011.6 |
| 20260510100005 | 73 | 84 | 0.0 | 0.0 | 0.00 | 0.00 | 0.00 | 95 | 1011.6 |
| 20260510095505 | 73 | 67 | 0.0 | 0.0 | 0.00 | 0.00 | 0.00 | 95 | 1011.6 |
| 20260510095005 | 73 | 112 | 0.0 | 0.0 | 0.00 | 0.00 | 0.00 | 95 | 1011.6 |
| 20260510094505 | 73 | 117 | 0.0 | 0.0 | 0.00 | 0.00 | 0.00 | 95 | 1011.6 |
| 20260510094211 | 73 | 109 | 0.0 | 0.0 | 0.00 | 0.00 | 0.00 | 95 | 1011.3 |
| 20260510093505 | 73 | 118 | 0.0 | 0.0 | 0.00 | 0.00 | 0.00 | 95 | 1011.3 |
| 20260510093005 | 73 | 95 | 0.0 | 0.0 | 0.00 | 0.00 | 0.00 | 95 | 1011.3 |
| 20260510092505 | 72 | 124 | 0.0 | 0.0 | 0.00 | 0.00 | 0.00 | 95 | 1011.3 |
| 20260510092005 | 72 | 124 | 0.0 | 0.0 | 0.00 | 0.00 | 0.00 | 95 | 1011.3 |
| 20260510091505 | 72 | 124 | 0.0 | 0.0 | 0.00 | 0.00 | 0.00 | 95 | 1011.3 |
| 20260510091005 | 72 | 119 | 0.0 | 0.0 | 0.00 | 0.00 | 0.00 | 95 | 1011.6 |
| 20260510090505 | 72 | 111 | 0.0 | 0.0 | 0.00 | 0.00 | 0.00 | 95 | 1011.6 |
| 20260510090005 | 72 | 135 | 0.0 | 0.0 | 0.00 | 0.00 | 0.00 | 95 | 1011.6 |
| 20260510085505 | 72 | 136 | 0.0 | 0.0 | 0.00 | 0.00 | 0.00 | 95 | 1011.3 |
| 20260510085005 | 72 | 131 | 0.0 | 0.0 | 0.00 | 0.00 | 0.00 | 95 | 1011.3 |
| 20260510084505 | 72 | 121 | 0.0 | 0.0 | 0.00 | 0.00 | 0.00 | 95 | 1011.6 |
| 20260510084005 | 72 | 118 | 0.0 | 0.0 | 0.00 | 0.00 | 0.00 | 95 | 1011.3 |
| 20260510083504 | 73 | 118 | 0.0 | 0.0 | 0.00 | 0.00 | 0.00 | 95 | 1011.6 |
| 20260510083005 | 73 | 148 | 0.0 | 0.0 | 0.00 | 0.00 | 0.00 | 95 | 1011.6 |
| 20260510082505 | 73 | 143 | 0.0 | 0.0 | 0.00 | 0.00 | 0.00 | 95 | 1011.6 |
| 20260510082213 | 73 | 132 | 0.0 | 0.0 | 0.00 | 0.00 | 0.00 | 95 | 1011.6 |
| 20260510081712 | 73 | 116 | 0.0 | 0.0 | 0.00 | 0.00 | 0.00 | 95 | 1012.0 |
| 20260510081005 | 73 | 114 | 0.0 | 0.0 | 0.00 | 0.00 | 0.00 | 95 | 1012.3 |
| 20260510080505 | 73 | 113 | 0.0 | 0.0 | 0.00 | 0.00 | 0.00 | 94 | 1012.3 |
| 20260510080005 | 73 | 106 | 0.0 | 0.0 | 0.00 | 0.00 | 0.00 | 94 | 1012.3 |
| 20260510075505 | 73 | 153 | 0.0 | 0.0 | 0.00 | 0.00 | 0.00 | 94 | 1012.3 |
| 20260510075005 | 73 | 139 | 0.0 | 0.0 | 0.00 | 0.00 | 0.00 | 94 | 1012.3 |
| 20260510074505 | 73 | 140 | 0.0 | 0.0 | 0.00 | 0.00 | 0.00 | 94 | 1012.3 |
| 20260510074005 | 73 | 112 | 0.0 | 0.0 | 0.00 | 0.00 | 0.00 | 94 | 1012.3 |
| 20260510073505 | 73 | 122 | 0.0 | 0.0 | 0.00 | 0.00 | 0.00 | 94 | 1012.3 |
| 20260510073005 | 73 | 138 | 3.5 | 0.0 | 0.00 | 0.00 | 0.00 | 94 | 1012.3 |
| 20260510072505 | 73 | 134 | 0.0 | 0.0 | 0.00 | 0.00 | 0.00 | 94 | 1012.3 |
| 20260510072005 | 74 | 132 | 0.0 | 0.0 | 0.00 | 0.00 | 0.00 | 94 | 1012.3 |
| 20260510071505 | 74 | 105 | 0.0 | 0.0 | 0.00 | 0.00 | 0.00 | 94 | 1012.3 |
| 20260510071005 | 74 | 104 | 0.0 | 0.0 | 0.00 | 0.00 | 0.00 | 94 | 1012.3 |
| 20260510070505 | 74 | 75 | 0.0 | 0.0 | 0.00 | 0.00 | 0.00 | 93 | 1012.3 |
| 20260510070005 | 74 | 95 | 0.0 | 0.0 | 0.00 | 0.00 | 0.00 | 93 | 1012.3 |
| 20260510065505 | 74 | 77 | 0.0 | 0.0 | 0.00 | 0.00 | 0.00 | 93 | 1012.3 |
| 20260510065005 | 74 | 92 | 0.0 | 0.0 | 0.00 | 0.00 | 0.00 | 93 | 1012.3 |
| 20260510064505 | 74 | 75 | 0.0 | 0.0 | 0.00 | 0.00 | 0.00 | 93 | 1012.3 |
| 20260510064005 | 74 | 58 | 3.5 | 0.0 | 0.00 | 0.00 | 0.00 | 93 | 1012.3 |
| 20260510063505 | 74 | 61 | 3.5 | 0.0 | 0.00 | 0.00 | 0.00 | 93 | 1012.3 |
| 20260510063005 | 74 | 111 | 0.0 | 0.0 | 0.00 | 0.00 | 0.00 | 93 | 1012.3 |
| 20260510062504 | 74 | 122 | 0.0 | 0.0 | 0.00 | 0.00 | 0.00 | 93 | 1012.3 |
| 20260510062005 | 74 | 97 | 0.0 | 0.0 | 0.00 | 0.00 | 0.00 | 93 | 1012.3 |
| 20260510061505 | 74 | 94 | 3.5 | 0.0 | 0.00 | 0.00 | 0.00 | 93 | 1012.3 |
| 20260510061005 | 74 | 179 | 3.5 | 0.0 | 0.00 | 0.00 | 0.00 | 92 | 1012.3 |
| 20260510060505 | 74 | 125 | 0.0 | 0.0 | 0.00 | 0.00 | 0.00 | 92 | 1012.3 |
| 20260510060006 | 74 | 114 | 0.0 | 0.0 | 0.00 | 0.00 | 0.00 | 92 | 1012.3 |
| 20260510055505 | 74 | 94 | 0.0 | 0.0 | 0.00 | 1.57 | 0.00 | 92 | 1012.3 |
| 20260510055005 | 74 | 123 | 0.0 | 0.0 | 0.00 | 1.57 | 0.00 | 92 | 1012.3 |
| 20260510054505 | 74 | 125 | 0.0 | 0.0 | 0.00 | 1.57 | 0.00 | 92 | 1012.7 |
| 20260510054005 | 74 | 124 | 0.0 | 0.0 | 0.00 | 1.57 | 0.00 | 92 | 1012.7 |
| 20260510053505 | 74 | 115 | 0.0 | 0.0 | 0.00 | 1.57 | 0.00 | 91 | 1012.3 |
| 20260510053005 | 74 | 85 | 0.0 | 0.0 | 0.00 | 1.57 | 0.00 | 91 | 1012.3 |
| 20260510052505 | 74 | 74 | 0.0 | 0.0 | 0.00 | 1.57 | 0.00 | 91 | 1012.7 |
| 20260510052004 | 74 | 85 | 0.0 | 0.0 | 0.00 | 1.57 | 0.00 | 91 | 1012.7 |
| 20260510051505 | 74 | 112 | 0.0 | 0.0 | 0.00 | 1.57 | 0.00 | 91 | 1012.3 |
| 20260510051006 | 74 | 107 | 0.0 | 0.0 | 0.00 | 1.57 | 0.00 | 91 | 1012.7 |
| 20260510050505 | 74 | 61 | 3.5 | 0.0 | 0.00 | 1.57 | 0.00 | 91 | 1012.7 |
| 20260510045517 | 74 | 92 | 0.0 | 0.0 | 0.00 | 1.57 | 0.00 | 91 | 1012.7 |
| 20260510045020 | 74 | 92 | 0.0 | 0.0 | 0.00 | 1.57 | 0.00 | 90 | 1012.7 |
| 20260510044523 | 74 | 92 | 0.0 | 0.0 | 0.00 | 1.57 | 0.00 | 90 | 1012.3 |
| 20260510044026 | 74 | 92 | 0.0 | 0.0 | 0.00 | 1.57 | 0.00 | 90 | 1012.7 |
| 20260510043526 | 74 | 91 | 0.0 | 0.0 | 0.00 | 1.57 | 0.00 | 90 | 1012.7 |
| 20260510043006 | 74 | 91 | 0.0 | 0.0 | 0.00 | 1.57 | 0.00 | 89 | 1012.7 |
| 20260510042508 | 74 | 92 | 0.0 | 0.0 | 0.00 | 1.57 | 0.00 | 89 | 1012.7 |
| 20260510042217 | 74 | 130 | 0.0 | 0.0 | 0.00 | 1.57 | 0.00 | 89 | 1012.3 |
| 20260510041514 | 74 | 131 | 0.0 | 0.0 | 0.00 | 1.57 | 0.00 | 89 | 1012.7 |
| 20260510041223 | 74 | 105 | 0.0 | 0.0 | 0.00 | 1.57 | 0.00 | 88 | 1012.7 |
| 20260510040520 | 74 | 105 | 0.0 | 0.0 | 0.00 | 1.57 | 0.00 | 88 | 1012.3 |
| 20260510040213 | 74 | 101 | 0.0 | 0.0 | 0.00 | 1.57 | 0.00 | 87 | 1012.3 |
| 20260510035526 | 74 | 109 | 0.0 | 0.0 | 0.00 | 1.57 | 0.00 | 87 | 1012.3 |
| 20260510035026 | 75 | 74 | 0.0 | 0.0 | 0.00 | 1.57 | 0.00 | 86 | 1012.3 |
| 20260510034526 | 75 | 70 | 3.5 | 0.0 | 0.00 | 1.57 | 0.00 | 86 | 1012.3 |
| 20260510034008 | 75 | 90 | 0.0 | 0.0 | 0.00 | 1.57 | 0.00 | 86 | 1012.3 |
| 20260510033510 | 75 | 82 | 0.0 | 0.0 | 0.00 | 1.57 | 0.00 | 85 | 1012.3 |
| 20260510033006 | 75 | 78 | 0.0 | 0.0 | 0.00 | 1.57 | 0.00 | 85 | 1012.0 |
| 20260510032517 | 75 | 75 | 0.0 | 0.0 | 0.00 | 1.57 | 0.00 | 85 | 1012.0 |
| 20260510032227 | 75 | 84 | 0.0 | 0.0 | 0.00 | 1.57 | 0.00 | 85 | 1012.0 |
| 20260510031523 | 75 | 77 | 0.0 | 0.0 | 0.00 | 1.57 | 0.00 | 85 | 1012.0 |
| 20260510031026 | 75 | 60 | 0.0 | 0.0 | 0.00 | 1.57 | 0.00 | 84 | 1012.0 |
| 20260510030732 | 75 | 132 | 0.0 | 0.0 | 0.00 | 1.57 | 0.00 | 84 | 1011.6 |
| 20260510030006 | 75 | 83 | 0.0 | 0.0 | 0.00 | 1.57 | 0.00 | 83 | 1011.6 |
| 20260510025508 | 75 | 83 | 3.5 | 0.0 | 0.00 | 1.57 | 0.00 | 83 | 1011.6 |
| 20260510025219 | 75 | 48 | 0.0 | 0.0 | 0.00 | 1.57 | 0.00 | 83 | 1011.6 |
| 20260510024722 | 75 | 75 | 0.0 | 0.0 | 0.00 | 1.57 | 0.00 | 82 | 1011.6 |
| 20260510024017 | 76 | 37 | 7.8 | 0.0 | 0.00 | 1.57 | 0.00 | 82 | 1011.6 |
| 20260510023520 | 76 | 45 | 3.5 | 0.0 | 0.00 | 1.57 | 0.00 | 81 | 1011.3 |
| 20260510023006 | 76 | 49 | 0.0 | 0.0 | 0.00 | 1.57 | 0.00 | 80 | 1011.3 |
| 20260510022526 | 76 | 41 | 0.0 | 0.0 | 0.00 | 1.57 | 0.00 | 80 | 1011.3 |
| 20260510022233 | 76 | 54 | 0.0 | 0.0 | 0.00 | 1.57 | 0.00 | 79 | 1011.3 |
| 20260510021526 | 76 | 67 | 0.0 | 0.0 | 0.00 | 1.57 | 0.00 | 79 | 1011.0 |
| 20260510021008 | 76 | 102 | 11.3 | 0.0 | 0.00 | 1.57 | 0.00 | 78 | 1011.0 |
| 20260510020511 | 77 | 46 | 3.5 | 0.0 | 0.00 | 1.57 | 0.00 | 77 | 1011.0 |
| 20260510020006 | 77 | 65 | 0.0 | 0.0 | 0.00 | 1.57 | 0.00 | 77 | 1010.6 |
| 20260510015517 | 77 | 74 | 0.0 | 0.0 | 0.00 | 1.57 | 0.00 | 76 | 1010.6 |
| 20260510015008 | 77 | 40 | 3.5 | 0.0 | 0.00 | 1.57 | 0.00 | 76 | 1010.6 |
| 20260510014730 | 77 | 104 | 3.5 | 0.0 | 0.00 | 1.57 | 0.00 | 75 | 1010.6 |
| 20260510014233 | 77 | 74 | 0.0 | 0.0 | 0.00 | 1.57 | 0.00 | 74 | 1010.6 |
| 20260510013526 | 77 | 63 | 3.5 | 0.0 | 0.00 | 1.57 | 0.00 | 74 | 1010.6 |
| 20260510013212 | 77 | 43 | 3.5 | 0.0 | 0.00 | 1.57 | 0.00 | 74 | 1010.6 |
| 20260510012715 | 77 | 79 | 3.5 | 0.0 | 0.00 | 1.57 | 0.00 | 74 | 1010.3 |
| 20260510012011 | 77 | 94 | 0.0 | 0.0 | 0.00 | 1.57 | 0.00 | 74 | 1010.3 |
| 20260510011721 | 77 | 80 | 0.0 | 0.0 | 0.00 | 1.57 | 0.00 | 73 | 1010.3 |
| 20260510011017 | 77 | 42 | 3.5 | 0.0 | 0.00 | 1.57 | 0.00 | 73 | 1010.3 |
| 20260510010520 | 77 | 67 | 7.8 | 0.0 | 0.00 | 1.57 | 0.00 | 73 | 1009.9 |
| 20260510010006 | 77 | 130 | 7.8 | 0.0 | 0.00 | 1.57 | 0.00 | 72 | 1009.9 |
| 20260510005526 | 78 | 88 | 11.3 | 0.0 | 0.00 | 1.57 | 0.00 | 72 | 1009.9 |
| 20260510005026 | 78 | 17 | 7.8 | 0.0 | 0.00 | 1.57 | 0.00 | 71 | 1009.9 |
| 20260510004526 | 78 | 40 | 3.5 | 0.0 | 0.00 | 1.57 | 0.00 | 71 | 1009.9 |
| 20260510004008 | 78 | 70 | 0.0 | 0.0 | 0.00 | 1.57 | 0.00 | 71 | 1009.9 |
| 20260510003717 | 78 | 65 | 3.5 | 0.0 | 0.00 | 1.57 | 0.00 | 70 | 1009.6 |
| 20260510003014 | 78 | 106 | 7.8 | 0.0 | 0.00 | 1.57 | 0.00 | 71 | 1009.9 |
| 20260510002723 | 79 | 71 | 3.5 | 0.0 | 0.00 | 1.57 | 0.00 | 70 | 1009.6 |
| 20260510002226 | 78 | 58 | 15.6 | 0.0 | 0.00 | 1.57 | 0.00 | 70 | 1009.6 |
| 20260510001729 | 79 | 47 | 7.8 | 0.0 | 0.00 | 1.57 | 0.00 | 70 | 1009.6 |
| 20260510001026 | 79 | 27 | 15.6 | 0.0 | 0.00 | 1.57 | 0.00 | 69 | 1009.6 |
| 20260510000526 | 79 | 28 | 3.5 | 0.0 | 0.00 | 1.57 | 0.00 | 69 | 1009.6 |
| 20260510000006 | 79 | 59 | 7.8 | 0.0 | 0.00 | 1.57 | 0.00 | 69 | 1009.6 |
| 20260509235715 | 79 | 52 | 3.5 | 0.0 | 0.00 | 1.57 | 0.00 | 69 | 1009.6 |
| 20260509235218 | 79 | 68 | 0.0 | 0.0 | 0.00 | 1.57 | 0.00 | 69 | 1009.3 |
| 20260509234514 | 79 | 50 | 11.3 | 0.0 | 0.00 | 1.57 | 0.00 | 68 | 1009.3 |
| 20260509234016 | 80 | 73 | 0.0 | 0.0 | 0.00 | 1.57 | 0.00 | 69 | 1009.6 |
| 20260509233520 | 80 | 24 | 11.3 | 0.0 | 0.00 | 1.57 | 0.00 | 69 | 1009.3 |
| 20260509233023 | 80 | 47 | 11.3 | 0.0 | 0.00 | 1.57 | 0.00 | 68 | 1009.3 |
| 20260509232525 | 80 | 29 | 7.8 | 0.0 | 0.00 | 1.57 | 0.00 | 68 | 1009.3 |
| 20260509232026 | 80 | 77 | 7.8 | 0.0 | 0.00 | 1.57 | 0.00 | 67 | 1009.3 |
| 20260509231526 | 80 | 46 | 3.5 | 0.0 | 0.00 | 1.57 | 0.00 | 66 | 1009.3 |
| 20260509231007 | 80 | 25 | 3.5 | 0.0 | 0.00 | 1.57 | 0.00 | 66 | 1009.3 |
| 20260509230718 | 80 | 52 | 20.0 | 0.0 | 0.00 | 1.57 | 0.00 | 66 | 1009.3 |
| 20260509230013 | 80 | 74 | 7.8 | 0.0 | 0.00 | 1.57 | 0.00 | 66 | 1009.3 |
| 20260509225517 | 80 | 72 | 3.5 | 0.0 | 0.00 | 1.57 | 0.00 | 67 | 1009.6 |
| 20260509225020 | 80 | 38 | 3.5 | 0.0 | 0.00 | 1.57 | 0.00 | 66 | 1009.3 |
| 20260509224523 | 80 | 80 | 3.5 | 0.0 | 0.00 | 1.57 | 0.00 | 66 | 1008.9 |
| 20260509224025 | 80 | 76 | 20.0 | 0.0 | 0.00 | 1.57 | 0.00 | 67 | 1009.3 |
| 20260509223525 | 80 | 92 | 11.3 | 0.0 | 0.00 | 1.57 | 0.00 | 68 | 1009.3 |
| 20260509223213 | 80 | 86 | 11.3 | 0.0 | 0.00 | 1.57 | 0.00 | 68 | 1009.3 |
| 20260509222507 | 80 | 38 | 3.5 | 0.0 | 0.00 | 1.57 | 0.00 | 68 | 1009.3 |
| 20260509222008 | 80 | 38 | 11.3 | 0.0 | 0.00 | 1.57 | 0.00 | 68 | 1009.3 |
| 20260509221514 | 81 | 57 | 23.5 | 0.0 | 0.00 | 1.57 | 0.00 | 67 | 1009.6 |
| 20260509221016 | 82 | 80 | 3.5 | 0.0 | 0.00 | 1.57 | 0.00 | 65 | 1009.3 |
| 20260509220519 | 82 | 94 | 3.5 | 0.0 | 0.00 | 1.57 | 0.00 | 64 | 1009.3 |
| 20260509220022 | 82 | 312 | 3.5 | 0.0 | 0.00 | 1.57 | 0.00 | 65 | 1009.6 |
| 20260509215522 | 82 | 46 | 3.5 | 0.0 | 0.00 | 1.57 | 0.00 | 64 | 1009.3 |
| 20260509215223 | 82 | 66 | 3.5 | 0.0 | 0.00 | 1.57 | 0.00 | 65 | 1009.6 |
| 20260509214526 | 82 | 79 | 7.8 | 0.0 | 0.00 | 1.57 | 0.00 | 64 | 1009.3 |
| 20260509214008 | 82 | 59 | 0.0 | 0.0 | 0.00 | 1.57 | 0.00 | 65 | 1009.3 |
| 20260509213718 | 82 | 87 | 0.0 | 0.0 | 0.00 | 1.57 | 0.00 | 65 | 1009.3 |
| 20260509213014 | 83 | 49 | 7.8 | 0.0 | 0.00 | 1.57 | 0.00 | 64 | 1009.3 |
| 20260509212516 | 83 | 342 | 0.0 | 0.0 | 0.00 | 1.57 | 0.00 | 63 | 1009.3 |
| 20260509212020 | 83 | 62 | 0.0 | 0.0 | 0.00 | 1.57 | 0.00 | 62 | 1009.6 |
| 20260509211522 | 83 | 66 | 3.5 | 0.0 | 0.00 | 1.57 | 0.00 | 61 | 1009.6 |
| 20260509211025 | 83 | 37 | 3.5 | 0.0 | 0.00 | 1.57 | 0.00 | 61 | 1009.6 |
| 20260509210525 | 83 | 11 | 3.5 | 0.0 | 0.00 | 1.57 | 0.00 | 63 | 1009.6 |
| 20260509210005 | 83 | 268 | 3.5 | 0.0 | 0.00 | 1.57 | 0.00 | 62 | 1009.6 |
| 20260509205507 | 83 | 52 | 3.5 | 0.0 | 0.00 | 1.57 | 0.00 | 61 | 1009.6 |
| 20260509205010 | 84 | 308 | 3.5 | 0.0 | 0.00 | 1.57 | 0.00 | 61 | 1009.6 |
| 20260509204513 | 84 | 51 | 3.5 | 0.0 | 0.00 | 1.57 | 0.00 | 62 | 1009.9 |
| 20260509204016 | 84 | 103 | 0.0 | 0.0 | 0.00 | 1.57 | 0.00 | 60 | 1009.9 |
| 20260509203519 | 84 | 92 | 0.0 | 0.0 | 0.00 | 1.57 | 0.00 | 60 | 1010.3 |
| 20260509203022 | 85 | 335 | 7.8 | 0.0 | 0.00 | 1.57 | 0.00 | 58 | 1009.9 |
| 20260509202525 | 85 | 24 | 7.8 | 0.0 | 0.00 | 1.57 | 0.00 | 61 | 1010.3 |
| 20260509202025 | 86 | 120 | 0.0 | 0.0 | 0.00 | 1.57 | 0.00 | 57 | 1009.9 |
| 20260509201525 | 85 | 108 | 0.0 | 0.0 | 0.00 | 1.57 | 0.00 | 57 | 1009.9 |
| 20260509201007 | 85 | 123 | 0.0 | 0.0 | 0.00 | 1.57 | 0.00 | 58 | 1009.9 |
| 20260509200510 | 84 | 104 | 0.0 | 0.0 | 0.00 | 1.57 | 0.00 | 58 | 1009.9 |
| 20260509200013 | 86 | 43 | 0.0 | 0.0 | 0.00 | 1.57 | 0.00 | 57 | 1009.9 |
| 20260509195516 | 86 | 54 | 3.5 | 0.0 | 0.00 | 1.57 | 0.00 | 60 | 1010.3 |
| 20260509195019 | 86 | 23 | 3.5 | 0.0 | 0.00 | 1.57 | 0.00 | 54 | 1010.3 |
| 20260509194522 | 86 | 173 | 0.0 | 0.0 | 0.00 | 1.57 | 0.00 | 55 | 1010.3 |
| 20260509194025 | 86 | 92 | 0.0 | 0.0 | 0.00 | 1.57 | 0.00 | 56 | 1010.3 |
| 20260509193733 | 86 | 161 | 7.8 | 0.0 | 0.00 | 1.57 | 0.00 | 54 | 1010.3 |
| 20260509193005 | 84 | 313 | 7.8 | 0.0 | 0.00 | 1.57 | 0.00 | 58 | 1010.6 |
| 20260509192715 | 83 | 83 | 0.0 | 0.0 | 0.00 | 1.57 | 0.00 | 58 | 1010.6 |
| 20260509192010 | 83 | 41 | 3.5 | 0.0 | 0.00 | 1.57 | 0.00 | 58 | 1010.6 |
| 20260509191513 | 83 | 75 | 0.0 | 0.0 | 0.00 | 1.57 | 0.00 | 60 | 1011.0 |
| 20260509191016 | 84 | 19 | 11.3 | 0.0 | 0.00 | 1.57 | 0.00 | 59 | 1010.6 |
| 20260509190519 | 84 | 109 | 0.0 | 0.0 | 0.00 | 1.57 | 0.00 | 58 | 1011.0 |
| 20260509190230 | 84 | 176 | 3.5 | 0.0 | 0.00 | 1.57 | 0.00 | 57 | 1011.0 |
| 20260509185525 | 84 | 51 | 3.5 | 0.0 | 0.00 | 1.57 | 0.00 | 57 | 1011.0 |
| 20260509185025 | 85 | 144 | 7.8 | 0.0 | 0.00 | 1.57 | 0.00 | 56 | 1011.0 |
| 20260509184525 | 85 | 126 | 0.0 | 0.0 | 0.00 | 1.57 | 0.00 | 54 | 1011.0 |
| 20260509184007 | 84 | 149 | 0.0 | 0.0 | 0.00 | 1.57 | 0.00 | 58 | 1011.0 |
| 20260509183717 | 84 | 89 | 3.5 | 0.0 | 0.00 | 1.57 | 0.00 | 60 | 1011.0 |
| 20260509183013 | 83 | 176 | 3.5 | 0.0 | 0.00 | 1.57 | 0.00 | 57 | 1011.3 |
| 20260509182516 | 83 | 132 | 0.0 | 0.0 | 0.00 | 1.57 | 0.00 | 63 | 1011.0 |
| 20260509182019 | 82 | 61 | 0.0 | 0.0 | 0.00 | 1.57 | 0.00 | 62 | 1011.3 |
| 20260509181727 | 83 | 90 | 3.5 | 0.0 | 0.00 | 1.57 | 0.00 | 61 | 1011.3 |
| 20260509181025 | 83 | 46 | 3.5 | 0.0 | 0.00 | 1.57 | 0.00 | 63 | 1011.3 |
| 20260509180525 | 82 | 123 | 0.0 | 0.0 | 0.00 | 1.57 | 0.00 | 62 | 1011.6 |
| 20260509180005 | 81 | 50 | 0.0 | 0.0 | 0.00 | 1.57 | 0.00 | 64 | 1011.3 |
| 20260509175507 | 81 | 50 | 3.5 | 0.0 | 0.00 | 1.57 | 0.00 | 65 | 1011.3 |
| 20260509175010 | 81 | 75 | 7.8 | 0.0 | 0.00 | 1.57 | 0.00 | 62 | 1011.3 |
| 20260509174513 | 80 | 39 | 0.0 | 0.0 | 0.00 | 1.57 | 0.00 | 68 | 1011.3 |
| 20260509174016 | 80 | 97 | 3.5 | 0.0 | 0.00 | 1.57 | 0.00 | 66 | 1011.3 |
| 20260509173520 | 80 | 63 | 0.0 | 0.0 | 0.00 | 1.57 | 0.00 | 68 | 1011.3 |
| 20260509173022 | 80 | 58 | 0.0 | 0.0 | 0.00 | 1.57 | 0.00 | 66 | 1011.6 |
| 20260509172525 | 80 | 92 | 3.5 | 0.0 | 0.00 | 1.57 | 0.00 | 67 | 1011.6 |
| 20260509172025 | 81 | 93 | 11.3 | 0.0 | 0.00 | 1.57 | 0.00 | 66 | 1011.6 |
| 20260509171733 | 81 | 78 | 11.3 | 0.0 | 0.00 | 1.57 | 0.00 | 65 | 1011.3 |
| 20260509171007 | 80 | 160 | 7.8 | 0.0 | 0.00 | 1.57 | 0.00 | 67 | 1011.6 |
| 20260509170510 | 80 | 47 | 7.8 | 0.0 | 0.00 | 1.57 | 0.00 | 67 | 1011.6 |
| 20260509170013 | 80 | 59 | 11.3 | 0.0 | 0.00 | 1.57 | 0.00 | 66 | 1011.6 |
| 20260509165516 | 80 | 6 | 7.8 | 0.0 | 0.00 | 1.57 | 0.00 | 69 | 1011.3 |
| 20260509165019 | 79 | 23 | 11.3 | 0.0 | 0.00 | 1.57 | 0.00 | 71 | 1011.3 |
| 20260509164522 | 79 | 122 | 11.3 | 0.0 | 0.00 | 1.57 | 0.00 | 69 | 1011.3 |
| 20260509164009 | 78 | 87 | 7.8 | 0.0 | 0.00 | 1.57 | 0.00 | 72 | 1011.6 |
| 20260509163525 | 78 | 76 | 20.0 | 0.0 | 0.00 | 1.57 | 0.00 | 70 | 1011.6 |
| 20260509163005 | 79 | 47 | 3.5 | 0.0 | 0.00 | 1.57 | 0.00 | 72 | 1011.3 |
| 20260509162505 | 77 | 98 | 7.8 | 0.0 | 0.00 | 1.57 | 0.00 | 75 | 1012.0 |
| 20260509162005 | 77 | 106 | 20.0 | 0.0 | 0.00 | 1.57 | 0.00 | 74 | 1011.6 |
| 20260509161505 | 76 | 61 | 0.0 | 0.0 | 0.00 | 1.57 | 0.00 | 80 | 1011.6 |
| 20260509161005 | 74 | 70 | 11.3 | 0.0 | 0.00 | 1.57 | 0.00 | 90 | 1012.0 |
| 20260509160712 | 72 | 46 | 11.3 | 0.0 | 0.00 | 1.57 | 0.00 | 95 | 1012.0 |
| 20260509160005 | 72 | 58 | 11.3 | 0.0 | 0.00 | 1.57 | 0.00 | 95 | 1012.0 |
| 20260509155505 | 71 | 123 | 7.8 | 0.0 | 0.00 | 1.57 | 0.00 | 95 | 1012.0 |
| 20260509155005 | 72 | 114 | 7.8 | 0.0 | 0.00 | 1.57 | 0.00 | 95 | 1012.0 |
| 20260509154505 | 71 | 35 | 7.8 | 0.0 | 0.00 | 1.57 | 0.00 | 95 | 1011.6 |
| 20260509154005 | 71 | 74 | 0.0 | 0.0 | 0.00 | 1.57 | 0.00 | 95 | 1012.0 |
| 20260509153505 | 71 | 97 | 3.5 | 0.0 | 0.00 | 1.57 | 0.00 | 95 | 1012.3 |
| 20260509153005 | 70 | 357 | 3.5 | 0.0 | 0.00 | 1.57 | 0.00 | 95 | 1012.3 |
| 20260509152711 | 70 | 54 | 7.8 | 0.0 | 0.00 | 1.57 | 0.00 | 95 | 1012.7 |
| 20260509152005 | 70 | 96 | 3.5 | 0.0 | 0.00 | 1.57 | 0.00 | 95 | 1012.7 |
| 20260509151505 | 71 | 55 | 7.8 | 0.0 | 0.00 | 1.57 | 0.00 | 95 | 1012.7 |
| 20260509151005 | 70 | 35 | 11.3 | 0.0 | 0.00 | 1.57 | 0.00 | 95 | 1012.7 |
| 20260509150505 | 70 | 115 | 11.3 | 0.0 | 0.00 | 1.57 | 0.00 | 95 | 1013.0 |
| 20260509150212 | 70 | 114 | 3.5 | 0.0 | 0.07 | 1.57 | 0.00 | 95 | 1012.7 |
| 20260509145505 | 70 | 25 | 3.5 | 0.0 | 0.19 | 1.57 | 0.00 | 95 | 1012.7 |
| 20260509145005 | 69 | 71 | 0.0 | 0.0 | 0.24 | 1.56 | 0.00 | 95 | 1013.3 |
| 20260509144505 | 69 | 114 | 3.5 | 0.0 | 0.54 | 1.54 | 0.00 | 95 | 1013.0 |
| 20260509144005 | 69 | 50 | 3.5 | 0.0 | 0.90 | 1.51 | 0.00 | 95 | 1013.3 |
| 20260509143505 | 68 | 65 | 0.0 | 0.0 | 1.91 | 1.44 | 0.00 | 95 | 1013.3 |
| 20260509143005 | 69 | 69 | 11.3 | 0.0 | 4.07 | 1.34 | 0.00 | 95 | 1014.0 |
| 20260509142505 | 69 | 321 | 3.5 | 0.0 | 3.95 | 1.02 | 0.00 | 93 | 1014.4 |
| 20260509142212 | 70 | 66 | 7.8 | 0.0 | 1.37 | 0.58 | 0.00 | 92 | 1015.4 |
| 20260509141505 | 71 | 253 | 27.8 | 0.0 | 0.00 | 0.35 | 0.00 | 92 | 1014.7 |
| 20260509141212 | 71 | 214 | 11.3 | 0.0 | 0.07 | 0.35 | 0.00 | 92 | 1014.0 |
| 20260509140505 | 71 | 214 | 11.3 | 0.0 | 0.07 | 0.35 | 0.00 | 92 | 1012.3 |
| 20260509140006 | 71 | 33 | 7.8 | 0.0 | 0.00 | 0.34 | 0.00 | 93 | 1011.6 |
| 20260509135505 | 71 | 80 | 7.8 | 0.0 | 0.00 | 0.34 | 0.00 | 93 | 1011.3 |
| 20260509135212 | 71 | 81 | 7.8 | 0.0 | 0.05 | 0.34 | 0.00 | 92 | 1011.3 |
| 20260509134505 | 71 | 8 | 7.8 | 0.0 | 0.05 | 0.34 | 0.00 | 92 | 1011.6 |
| 20260509134005 | 71 | 1 | 11.3 | 0.0 | 0.00 | 0.33 | 0.00 | 92 | 1012.0 |
| 20260509133505 | 71 | 13 | 11.3 | 0.0 | 0.00 | 0.33 | 0.00 | 92 | 1011.6 |
| 20260509133212 | 71 | 68 | 7.8 | 0.0 | 0.00 | 0.33 | 0.00 | 92 | 1012.0 |
| 20260509132505 | 71 | 15 | 7.8 | 0.0 | 0.00 | 0.33 | 0.00 | 92 | 1011.6 |
| 20260509132005 | 71 | 81 | 3.5 | 0.0 | 0.00 | 0.33 | 0.00 | 92 | 1011.6 |
| 20260509131505 | 71 | 78 | 3.5 | 0.0 | 0.00 | 0.33 | 0.00 | 92 | 1012.0 |
| 20260509131005 | 71 | 71 | 7.8 | 0.0 | 0.00 | 0.33 | 0.00 | 93 | 1012.0 |
| 20260509130505 | 71 | 152 | 3.5 | 0.0 | 0.00 | 0.33 | 0.00 | 93 | 1012.0 |
| 20260509130005 | 71 | 5 | 3.5 | 0.0 | 0.00 | 0.33 | 0.00 | 94 | 1012.0 |
| 20260509125505 | 71 | 297 | 11.3 | 0.0 | 0.00 | 0.33 | 0.00 | 94 | 1012.0 |
| 20260509125005 | 71 | 13 | 3.5 | 0.0 | 0.00 | 0.33 | 0.00 | 94 | 1012.0 |
| 20260509124505 | 71 | 72 | 0.0 | 0.0 | 0.00 | 0.33 | 0.00 | 94 | 1011.6 |
| 20260509124005 | 71 | 194 | 11.3 | 0.0 | 0.00 | 0.33 | 0.00 | 95 | 1011.6 |